Wahpeton, MN

7:40 PM CST on December 06, 2019 (GMT -0600)
Stern

Weather History for KBWP - October, 2019

Change the Weather History Date:

Monday, October 14, 2019

  Actual Average (KFFM) Record (KFFM)
Temperature  
Mean Temperature 39 °F -  
Max Temperature 48 °F 56 °F 82 °F (1962)
Min Temperature 30 °F 36 °F 20 °F (1979)
Degree Days  
Heating Degree Days 26    
Moisture  
Dew Point 32 °F    
Average Humidity 80    
Maximum Humidity 93    
Minimum Humidity 57    
Precipitation  
Precipitation 0.00 in - - ()
Sea Level Pressure  
Sea Level Pressure 29.92 in    
Wind  
Wind Speed 4 mph ()    
Max Wind Speed 8 mph    
Max Gust Speed -    
Visibility 9.9 miles    
Events      
Averages and records for this station are not official NWS values.
T = Trace of Precipitation, MM = Missing Value Source: Averaged Metar Reports

Daily Weather History Graph

Daily Weather History Graph

Search for Another Location

Airport or City:

Astronomy

Oct. 14, 2019 Rise Set
Actual Time 7:41 AM CDT 6:42 PM CDT
Civil Twilight 7:11 AM CDT 7:12 PM CDT
Nautical Twilight 6:36 AM CDT 7:47 PM CDT
Astronomical Twilight 6:02 AM CDT 8:21 PM CDT
Moon 7:32 PM CDT (10/14) 8:13 AM CDT (10/14)
Length of Visible Light 12h 00m
Length of Day
11h 00m
Full, 99% of the Moon is Illuminated
Oct 14
Full
Oct 21
Last Quarter
Oct 27
New
Nov 4
First Quarter
Nov 12
Full

Hourly Weather History & Observations

Time (CDT) Temp. Windchill Dew Point Humidity Pressure Visibility Wind Dir Wind Speed Gust Speed Precip Events Conditions
12:15 AM 33.8 °F 29.6 °F 32.0 °F 93% 29.95 in 10.0 mi West 4.6 mph - N/A   Unknown
12:35 AM 33.8 °F 29.6 °F 32.0 °F 93% 29.95 in 10.0 mi West 4.6 mph - N/A   Unknown
12:55 AM 33.8 °F 28.6 °F 32.0 °F 93% 29.95 in 10.0 mi West 5.8 mph - N/A   Unknown
1:15 AM 33.8 °F 27.7 °F 32.0 °F 93% 29.95 in 10.0 mi West 6.9 mph - N/A   Unknown
1:35 AM 33.8 °F 28.6 °F 32.0 °F 93% 29.96 in 10.0 mi West 5.8 mph - N/A   Unknown
1:55 AM 33.8 °F 28.6 °F 32.0 °F 93% 29.95 in 10.0 mi West 5.8 mph - N/A   Unknown
2:15 AM 33.8 °F 29.6 °F 32.0 °F 93% 29.95 in 10.0 mi West 4.6 mph - N/A   Unknown
2:35 AM 33.8 °F 28.6 °F 32.0 °F 93% 29.96 in 10.0 mi WSW 5.8 mph - N/A   Unknown
2:55 AM 33.8 °F 28.6 °F 32.0 °F 93% 29.96 in 10.0 mi WSW 5.8 mph - N/A   Unknown
3:15 AM 32.0 °F 26.4 °F 30.2 °F 93% 29.96 in 10.0 mi WSW 5.8 mph - N/A   Unknown
3:35 AM 32.0 °F 26.4 °F 30.2 °F 93% 29.96 in 10.0 mi WSW 5.8 mph - N/A   Unknown
3:55 AM 32.0 °F 26.4 °F 30.2 °F 93% 29.96 in 10.0 mi WSW 5.8 mph - N/A   Unknown
4:15 AM 32.0 °F 27.5 °F 30.2 °F 93% 29.96 in 10.0 mi SW 4.6 mph - N/A   Unknown
4:35 AM 32.0 °F 28.7 °F 30.2 °F 93% 29.96 in 10.0 mi SW 3.5 mph - N/A   Unknown
4:55 AM 32.0 °F 26.4 °F 30.2 °F 93% 29.96 in 10.0 mi SW 5.8 mph - N/A   Unknown
5:15 AM 32.0 °F 27.5 °F 30.2 °F 93% 29.96 in 10.0 mi SW 4.6 mph - N/A   Unknown
5:35 AM 32.0 °F 26.4 °F 28.4 °F 87% 29.96 in 10.0 mi SW 5.8 mph - N/A   Unknown
5:55 AM 30.2 °F 25.4 °F 28.4 °F 93% 29.96 in 10.0 mi WSW 4.6 mph - N/A   Unknown
6:15 AM 30.2 °F 26.7 °F 28.4 °F 93% 29.96 in 10.0 mi SW 3.5 mph - N/A   Unknown
6:35 AM 30.2 °F - 28.4 °F 93% 29.96 in 10.0 mi Calm Calm - N/A   Unknown
6:55 AM 30.2 °F - 28.4 °F 93% 29.96 in 10.0 mi Calm Calm - N/A   Unknown
7:15 AM 30.2 °F - 28.4 °F 93% 29.96 in 10.0 mi Calm Calm - N/A   Unknown
7:35 AM 30.2 °F 26.7 °F 28.4 °F 93% 29.96 in 10.0 mi South 3.5 mph - N/A   Unknown
7:55 AM 30.2 °F 26.7 °F 28.4 °F 93% 29.96 in 10.0 mi South 3.5 mph - N/A   Unknown
8:15 AM 30.2 °F 26.7 °F 28.4 °F 93% 29.96 in 10.0 mi South 3.5 mph - N/A   Unknown
8:35 AM 32.0 °F 28.7 °F 28.4 °F 87% 29.97 in 10.0 mi South 3.5 mph - N/A   Unknown
8:55 AM 32.0 °F - 30.2 °F 93% 29.97 in 10.0 mi Calm Calm - N/A   Unknown
9:15 AM 32.0 °F 28.7 °F 30.2 °F 93% 29.97 in 10.0 mi SSW 3.5 mph - N/A   Unknown
9:35 AM 32.0 °F 28.7 °F 30.2 °F 93% 29.97 in 10.0 mi South 3.5 mph - N/A   Unknown
9:55 AM 33.8 °F 30.8 °F 32.0 °F 93% 29.96 in 10.0 mi SSE 3.5 mph - N/A   Unknown
10:15 AM 35.6 °F 31.7 °F 32.0 °F 87% 29.96 in 10.0 mi South 4.6 mph - N/A   Unknown
10:35 AM 37.4 °F 32.8 °F 32.0 °F 81% 29.96 in 10.0 mi SSW 5.8 mph - N/A   Unknown
10:55 AM 39.2 °F 37.0 °F 32.0 °F 75% 29.96 in 10.0 mi SW 3.5 mph - N/A   Unknown
11:15 AM 41.0 °F - 32.0 °F 70% 29.96 in 10.0 mi Calm Calm - N/A   Unknown
11:35 AM 41.0 °F - 32.0 °F 70% 29.96 in 10.0 mi Calm Calm - N/A   Unknown
11:55 AM 41.0 °F 38.0 °F 32.0 °F 70% 29.95 in 10.0 mi South 4.6 mph - N/A   Unknown
12:15 PM 42.8 °F 39.3 °F 32.0 °F 66% 29.94 in 10.0 mi SSW 5.8 mph - N/A   Unknown
12:35 PM 42.8 °F 39.3 °F 32.0 °F 66% 29.94 in 10.0 mi SE 5.8 mph - N/A   Unknown
12:55 PM 42.8 °F 39.3 °F 32.0 °F 66% 29.94 in 10.0 mi SSE 5.8 mph - N/A   Unknown
1:15 PM 44.6 °F 41.4 °F 32.0 °F 61% 29.93 in 10.0 mi SSE 5.8 mph - N/A   Unknown
1:35 PM 44.6 °F 42.2 °F 32.0 °F 61% 29.92 in 10.0 mi SE 4.6 mph - N/A   Unknown
1:55 PM 44.6 °F 42.2 °F 32.0 °F 61% 29.91 in 10.0 mi SSE 4.6 mph - N/A   Unknown
2:15 PM 44.6 °F 42.2 °F 32.0 °F 61% 29.90 in 10.0 mi ESE 4.6 mph - N/A   Unknown
2:35 PM 46.4 °F 42.9 °F 32.0 °F 57% 29.89 in 10.0 mi ESE 6.9 mph - N/A   Unknown
2:55 PM 46.4 °F 42.9 °F 32.0 °F 57% 29.88 in 10.0 mi SE 6.9 mph - N/A   Unknown
3:15 PM 46.4 °F 42.9 °F 32.0 °F 57% 29.88 in 10.0 mi ESE 6.9 mph - N/A   Unknown
3:35 PM 46.4 °F 42.4 °F 32.0 °F 57% 29.87 in 10.0 mi ESE 8.1 mph - N/A   Unknown
3:55 PM 46.4 °F 44.3 °F 32.0 °F 57% 29.87 in 10.0 mi SE 4.6 mph - N/A   Unknown
4:15 PM 48.2 °F - 33.8 °F 58% 29.87 in 10.0 mi SE 5.8 mph - N/A   Unknown
4:35 PM 48.2 °F - 33.8 °F 58% 29.87 in 10.0 mi SE 6.9 mph - N/A   Unknown
4:55 PM 46.4 °F 42.9 °F 32.0 °F 57% 29.86 in 10.0 mi ESE 6.9 mph - N/A   Unknown
5:15 PM 46.4 °F 42.4 °F 33.8 °F 62% 29.86 in 10.0 mi ESE 8.1 mph - N/A   Unknown
5:35 PM 46.4 °F 44.3 °F 33.8 °F 62% 29.86 in 10.0 mi ESE 4.6 mph - N/A   Unknown
5:55 PM 46.4 °F 44.3 °F 33.8 °F 62% 29.86 in 2.0 mi East 4.6 mph - N/A   Unknown
6:15 PM 44.6 °F 42.2 °F 33.8 °F 66% 29.85 in 10.0 mi East 4.6 mph - N/A   Unknown
6:35 PM 44.6 °F 43.1 °F 35.6 °F 71% 29.86 in 10.0 mi East 3.5 mph - N/A   Unknown
6:55 PM 42.8 °F 40.1 °F 33.8 °F 70% 29.87 in 10.0 mi East 4.6 mph - N/A   Unknown
7:15 PM 42.8 °F 39.3 °F 33.8 °F 70% 29.87 in 10.0 mi East 5.8 mph - N/A   Unknown
7:35 PM 42.8 °F 40.1 °F 33.8 °F 70% 29.87 in 10.0 mi East 4.6 mph - N/A   Unknown
7:55 PM 42.8 °F 40.1 °F 33.8 °F 70% 29.87 in 10.0 mi ESE 4.6 mph - N/A   Unknown
8:15 PM 41.0 °F 38.0 °F 33.8 °F 76% 29.87 in 10.0 mi East 4.6 mph - N/A   Unknown
8:35 PM 39.2 °F 35.9 °F 33.8 °F 81% 29.87 in 10.0 mi East 4.6 mph - N/A   Unknown
8:55 PM 39.2 °F 35.9 °F 33.8 °F 81% 29.88 in 10.0 mi East 4.6 mph - N/A   Unknown
9:15 PM 39.2 °F 35.9 °F 33.8 °F 81% 29.88 in 10.0 mi ESE 4.6 mph - N/A   Unknown
9:35 PM 37.4 °F 34.9 °F 32.0 °F 81% 29.88 in 10.0 mi East 3.5 mph - N/A   Unknown
9:55 PM 37.4 °F 34.9 °F 33.8 °F 87% 29.89 in 10.0 mi East 3.5 mph - N/A   Unknown
10:15 PM 37.4 °F 33.8 °F 33.8 °F 87% 29.89 in 10.0 mi East 4.6 mph - N/A   Unknown
10:35 PM 37.4 °F 34.9 °F 33.8 °F 87% 29.89 in 10.0 mi ENE 3.5 mph - N/A   Unknown
10:55 PM 37.4 °F - 33.8 °F 87% 29.90 in 10.0 mi Calm Calm - N/A   Unknown
11:15 PM 37.4 °F 33.8 °F 32.0 °F 81% 29.89 in 10.0 mi ENE 4.6 mph - N/A   Unknown
11:35 PM 37.4 °F 34.9 °F 32.0 °F 81% 29.89 in 10.0 mi ENE 3.5 mph - N/A   Unknown
11:55 PM 37.4 °F 33.8 °F 32.0 °F 81% 29.88 in 10.0 mi East 4.6 mph - N/A   Unknown